BEE8TA EGJJ-EGTE

Flight info

Callsign BEE8TA
Flight time 0h 29m
Altitude 16000
Route SKERY L22 EMWIP P16 FIMCA N22 BHD N864 DAWLY
Aircraft DH8D/M-SDE2E3FGRY/H

Departure

Time 2026-05-05 10:16
Airport Jersey Airport (EGJJ)

Arrival

Time 2026-05-05 10:45
Airport Exeter International Airport (EGTE)
Time Latitude Longitude Altitude Speed Heading
2026-05-05 09:47 49.20482 -2.19619 273 ft 0 kts 15°
2026-05-05 10:05 49.20474 -2.19622 273 ft 2 kts 15°
2026-05-05 10:06 49.20464 -2.19626 272 ft 0 kts 15°
2026-05-05 10:06 49.20450 -2.19628 272 ft 2 kts 347°
2026-05-05 10:06 49.20437 -2.19618 272 ft 2 kts 318°
2026-05-05 10:06 49.20428 -2.19600 272 ft 1 kts 289°
2026-05-05 10:07 49.20427 -2.19593 272 ft 0 kts 285°
2026-05-05 10:11 49.20434 -2.19635 272 ft 5 kts 284°
2026-05-05 10:12 49.20440 -2.19691 272 ft 5 kts 271°
2026-05-05 10:12 49.20433 -2.19790 271 ft 15 kts 264°
2026-05-05 10:12 49.20468 -2.19916 269 ft 13 kts 351°
2026-05-05 10:12 49.20516 -2.19998 270 ft 14 kts 286°
2026-05-05 10:13 49.20546 -2.20150 270 ft 15 kts 286°
2026-05-05 10:13 49.20583 -2.20336 266 ft 23 kts 288°
2026-05-05 10:13 49.20618 -2.20518 259 ft 1 kts 285°
2026-05-05 10:14 49.20628 -2.20612 253 ft 14 kts 266°
2026-05-05 10:14 49.20685 -2.20693 248 ft 12 kts 43°
2026-05-05 10:14 49.20703 -2.20634 253 ft 0 kts 81°
2026-05-05 10:15 49.20713 -2.20533 259 ft 40 kts 82°
2026-05-05 10:15 49.20789 -2.19636 274 ft 123 kts 83°
2026-05-05 10:15 49.20882 -2.18163 578 ft 146 kts 82°
2026-05-05 10:16 49.20920 -2.16567 1152 ft 160 kts 90°
2026-05-05 10:16 49.20844 -2.14784 1609 ft 171 kts 82°
2026-05-05 10:16 49.20997 -2.13000 2179 ft 171 kts 73°
2026-05-05 10:16 49.21503 -2.11409 2765 ft 169 kts 49°
2026-05-05 10:17 49.22420 -2.10308 3367 ft 169 kts 27°
2026-05-05 10:17 49.23547 -2.09861 3935 ft 174 kts
2026-05-05 10:17 49.24757 -2.10134 4482 ft 184 kts 341°
2026-05-05 10:17 49.25853 -2.11187 5063 ft 191 kts 330°
2026-05-05 10:18 49.26915 -2.12410 5661 ft 193 kts 328°
2026-05-05 10:18 49.27968 -2.13697 6252 ft 195 kts 327°
2026-05-05 10:18 49.29001 -2.15013 6836 ft 197 kts 325°
2026-05-05 10:18 49.30055 -2.16392 7414 ft 200 kts 324°
2026-05-05 10:19 49.31099 -2.17792 7965 ft 203 kts 324°
2026-05-05 10:19 49.32156 -2.19233 8498 ft 207 kts 323°
2026-05-05 10:19 49.33228 -2.20710 9063 ft 209 kts 322°
2026-05-05 10:19 49.34320 -2.22227 9633 ft 212 kts 322°
2026-05-05 10:20 49.35405 -2.23747 10195 ft 213 kts 322°
2026-05-05 10:20 49.36517 -2.25299 10534 ft 229 kts 322°
2026-05-05 10:20 49.37750 -2.27034 10696 ft 249 kts 321°
2026-05-05 10:20 49.39054 -2.28885 11100 ft 257 kts 321°
2026-05-05 10:21 49.40356 -2.30742 11595 ft 260 kts 321°
2026-05-05 10:21 49.41689 -2.32638 12102 ft 262 kts 321°
2026-05-05 10:21 49.43034 -2.34561 12607 ft 265 kts 320°
2026-05-05 10:21 49.44379 -2.36476 13138 ft 266 kts 321°
2026-05-05 10:22 49.45812 -2.38308 13621 ft 267 kts 326°
2026-05-05 10:22 49.47306 -2.40025 14122 ft 268 kts 326°
2026-05-05 10:22 49.48790 -2.41726 14596 ft 270 kts 326°
2026-05-05 10:22 49.50306 -2.43465 15054 ft 272 kts 326°
2026-05-05 10:23 49.51831 -2.45218 15498 ft 275 kts 326°
2026-05-05 10:23 49.53348 -2.46965 15838 ft 281 kts 326°
2026-05-05 10:23 49.54949 -2.48810 15941 ft 294 kts 326°
2026-05-05 10:23 49.56631 -2.50751 15968 ft 308 kts 326°
2026-05-05 10:24 49.58372 -2.52766 15972 ft 318 kts 326°
2026-05-05 10:24 49.60164 -2.54845 15971 ft 326 kts 326°
2026-05-05 10:24 49.61980 -2.56953 15968 ft 332 kts 325°
2026-05-05 10:24 49.63856 -2.59134 15966 ft 336 kts 325°
2026-05-05 10:25 49.65731 -2.61315 15965 ft 340 kts 325°
2026-05-05 10:25 49.67613 -2.63507 15985 ft 343 kts 325°
2026-05-05 10:25 49.69531 -2.65744 15966 ft 346 kts 324°
2026-05-05 10:25 49.70878 -2.67316 15967 ft 346 kts 324°
2026-05-05 10:26 49.72788 -2.69546 15971 ft 347 kts 324°
2026-05-05 10:26 49.74722 -2.71808 15978 ft 348 kts 324°
2026-05-05 10:26 49.76661 -2.74077 15970 ft 348 kts 324°
2026-05-05 10:26 49.78589 -2.76333 15971 ft 348 kts 325°
2026-05-05 10:27 49.80516 -2.78592 15972 ft 347 kts 324°
2026-05-05 10:27 49.82449 -2.80864 15977 ft 346 kts 325°
2026-05-05 10:27 49.84365 -2.83113 15978 ft 347 kts 324°
2026-05-05 10:27 49.86273 -2.85356 15977 ft 348 kts 325°
2026-05-05 10:28 49.88200 -2.87624 15982 ft 348 kts 325°
2026-05-05 10:28 49.90126 -2.89892 15978 ft 348 kts 324°
2026-05-05 10:28 49.92063 -2.92178 15976 ft 349 kts 324°
2026-05-05 10:28 49.93988 -2.94450 15973 ft 349 kts 324°
2026-05-05 10:29 49.95895 -2.96704 15980 ft 348 kts 325°
2026-05-05 10:29 49.97823 -2.98986 15984 ft 347 kts 324°
2026-05-05 10:29 49.99766 -3.01287 15987 ft 348 kts 325°
2026-05-05 10:29 50.01693 -3.03571 15987 ft 349 kts 325°
2026-05-05 10:30 50.03603 -3.05838 15986 ft 349 kts 325°
2026-05-05 10:30 50.05534 -3.08132 15987 ft 348 kts 324°
2026-05-05 10:30 50.07480 -3.10449 15987 ft 348 kts 324°
2026-05-05 10:30 50.09391 -3.12721 15987 ft 348 kts 325°
2026-05-05 10:31 50.11312 -3.15009 15989 ft 347 kts 324°
2026-05-05 10:31 50.13227 -3.17292 15987 ft 347 kts 324°
2026-05-05 10:31 50.15132 -3.19567 15987 ft 348 kts 324°
2026-05-05 10:31 50.17002 -3.21810 16204 ft 321 kts 324°
2026-05-05 10:32 50.18639 -3.23796 16724 ft 286 kts 324°
2026-05-05 10:32 50.20011 -3.25449 16416 ft 283 kts 325°
2026-05-05 10:32 50.21545 -3.27296 16104 ft 274 kts 325°
2026-05-05 10:32 50.23032 -3.29085 15581 ft 274 kts 325°
2026-05-05 10:33 50.24539 -3.30897 15103 ft 270 kts 325°
2026-05-05 10:33 50.26004 -3.32659 14598 ft 268 kts 325°
2026-05-05 10:33 50.27478 -3.34434 14133 ft 265 kts 326°
2026-05-05 10:33 50.28939 -3.36193 13638 ft 262 kts 326°
2026-05-05 10:34 50.30363 -3.37909 13150 ft 261 kts 326°
2026-05-05 10:34 50.31791 -3.39629 12690 ft 258 kts 325°
2026-05-05 10:34 50.33196 -3.41323 12233 ft 256 kts 325°
2026-05-05 10:34 50.34613 -3.43034 11758 ft 254 kts 325°
2026-05-05 10:35 50.36000 -3.44709 11302 ft 251 kts 325°
2026-05-05 10:35 50.37367 -3.46361 10791 ft 249 kts 325°
2026-05-05 10:35 50.38739 -3.48020 10277 ft 247 kts 324°
2026-05-05 10:35 50.40107 -3.49589 9778 ft 244 kts 330°
2026-05-05 10:36 50.41581 -3.50877 9295 ft 241 kts 334°
2026-05-05 10:36 50.43045 -3.52082 8775 ft 239 kts 334°
2026-05-05 10:36 50.44511 -3.53290 8261 ft 238 kts 334°
2026-05-05 10:36 50.45978 -3.54502 7751 ft 236 kts 334°
2026-05-05 10:37 50.47424 -3.55696 7378 ft 234 kts 334°
2026-05-05 10:37 50.48841 -3.56872 7032 ft 230 kts 333°
2026-05-05 10:37 50.50264 -3.58055 6612 ft 230 kts 333°
2026-05-05 10:37 50.51646 -3.59206 6238 ft 227 kts 333°
2026-05-05 10:38 50.53054 -3.60379 5833 ft 228 kts 334°
2026-05-05 10:38 50.54448 -3.61540 5519 ft 226 kts 334°
2026-05-05 10:38 50.55824 -3.62690 5198 ft 225 kts 334°
2026-05-05 10:38 50.57207 -3.63846 4872 ft 225 kts 334°
2026-05-05 10:39 50.58577 -3.64992 4565 ft 223 kts 334°
2026-05-05 10:39 50.59877 -3.66082 4204 ft 223 kts 333°
2026-05-05 10:39 50.61264 -3.67245 3847 ft 222 kts 333°
2026-05-05 10:39 50.62622 -3.68391 3540 ft 221 kts 333°
2026-05-05 10:40 50.63960 -3.69517 3248 ft 220 kts 333°
2026-05-05 10:40 50.65320 -3.70657 2913 ft 220 kts 334°
2026-05-05 10:40 50.66770 -3.71284 2565 ft 216 kts
2026-05-05 10:40 50.68147 -3.70590 2309 ft 209 kts 36°
2026-05-05 10:41 50.68985 -3.68808 2226 ft 201 kts 65°
2026-05-05 10:41 50.69401 -3.66727 2194 ft 199 kts 73°
2026-05-05 10:41 50.69740 -3.64633 2215 ft 195 kts 73°
2026-05-05 10:41 50.70078 -3.62522 2190 ft 196 kts 73°
2026-05-05 10:42 50.70732 -3.58405 2150 ft 190 kts 73°
2026-05-05 10:42 50.71044 -3.56454 1913 ft 177 kts 73°
2026-05-05 10:42 50.71330 -3.54657 1669 ft 163 kts 73°
2026-05-05 10:43 50.71581 -3.53080 1419 ft 150 kts 72°
2026-05-05 10:43 50.71819 -3.51574 1203 ft 137 kts 72°
2026-05-05 10:43 50.72037 -3.50175 1016 ft 127 kts 72°
2026-05-05 10:43 50.72241 -3.48850 889 ft 125 kts 74°
2026-05-05 10:44 50.72447 -3.47541 721 ft 120 kts 73°
2026-05-05 10:44 50.72649 -3.46280 577 ft 116 kts 75°
2026-05-05 10:44 50.72843 -3.45022 422 ft 120 kts 71°
2026-05-05 10:44 50.73045 -3.43768 300 ft 119 kts 71°
2026-05-05 10:45 50.73254 -3.42459 111 ft 118 kts 73°
2026-05-05 10:45 50.73431 -3.41384 95 ft 76 kts 76°
2026-05-05 10:45 50.73502 -3.40984 99 ft 14 kts 105°
2026-05-05 10:45 50.73474 -3.41014 99 ft 6 kts 278°
2026-05-05 10:46 50.73453 -3.41065 99 ft 5 kts 181°
2026-05-05 10:46 50.73404 -3.41056 101 ft 9 kts 171°
2026-05-05 10:46 50.73344 -3.41047 103 ft 8 kts 179°
2026-05-05 10:46 50.73254 -3.41076 105 ft 14 kts 211°
2026-05-05 10:47 50.73215 -3.41204 106 ft 12 kts 253°
2026-05-05 10:47 50.73204 -3.41337 106 ft 11 kts 272°
2026-05-05 10:47 50.73208 -3.41517 103 ft 18 kts 271°
2026-05-05 10:47 50.73222 -3.41687 102 ft 12 kts 268°
2026-05-05 10:48 50.73196 -3.41768 102 ft 5 kts 238°
2026-05-05 10:48 50.73173 -3.41826 101 ft 5 kts 226°
2026-05-05 10:48 50.73153 -3.41817 102 ft 3 kts 134°
2026-05-05 10:48 50.73135 -3.41784 103 ft 2 kts 130°
2026-05-05 10:49 50.73127 -3.41771 104 ft 0 kts 129°